This demonstration page uses our WeatherBlox Daily Observations layout. Learn more.

Hourly Observations for October 1, 2020

Temp ( °F °C ) Dew Point ( °F °C ) Humidity (%) Winds ( mph kmh ) Pressure ( in mb ) Visibility ( mi km ) Precip ( " mm )
12:15 am 00:15 Clear 54 12 52 11 94 94 SSW 6 9 29.91 1013 10 16.0934 0 0
12:35 am 00:35 Clear 54 12 52 11 94 94 SSW 3 6 29.91 1013 10 16.0934 0 0
12:55 am 00:55 Clear 52 11 52 11 100 100 SSW 6 9 29.9 1013 10 16.0934 0 0
1:15 am 01:15 Clear 52 11 52 11 100 100 S 6 9 29.9 1013 10 16.0934 0 0
1:35 am 01:35 Clear 52 11 52 11 100 100 SSW 6 9 29.91 1013 10 16.0934 0 0
1:55 am 01:55 Clear 52 11 52 11 100 100 S 5 7 29.91 1013 10 16.0934 0 0
2:15 am 02:15 Clear 52 11 50 10 94 94 SSW 3 6 29.9 1013 10 16.0934 0 0
2:35 am 02:35 Clear 50 10 50 10 100 100 SSW 5 7 29.91 1013 10 16.0934 0 0
2:55 am 02:55 Clear 52 11 50 10 94 94 SSW 5 7 29.9 1013 10 16.0934 0 0
3:15 am 03:15 Clear 50 10 50 10 100 100 SSW 5 7 29.91 1013 10 16.0934 0 0
3:35 am 03:35 Clear 50 10 50 10 100 100 SW 5 7 29.91 1013 10 16.0934 0 0
3:55 am 03:55 Clear 48 9 48 9 100 100 Calm 29.91 1013 10 16.0934 0 0
4:15 am 04:15 Clear 48 9 48 9 100 100 Calm 29.91 1013 10 16.0934 0 0
4:35 am 04:35 Clear 48 9 48 9 100 100 Calm 29.91 1013 10 16.0934 0 0
4:55 am 04:55 Clear 48 9 48 9 100 100 Calm 29.92 1013 10 16.0934 0 0
5:15 am 05:15 Clear 50 10 50 10 100 100 Calm 29.92 1013 10 16.0934 0 0
5:35 am 05:35 Clear 50 10 50 10 100 100 Calm 29.93 1013 10 16.0934 0 0
5:55 am 05:55 Clear 52 11 50 10 94 94 SW 3 6 29.92 1013 10 16.0934 0 0
6:15 am 06:15 Clear 50 10 50 10 100 100 W 3 6 29.94 1014 10 16.0934 0 0
6:35 am 06:35 Clear 50 10 50 10 100 100 Calm 29.94 1014 10 16.0934 0 0
6:55 am 06:55 Partly Cloudy 50 10 50 10 100 100 S 3 6 29.94 1014 10 16.0934 0 0
7:15 am 07:15 Partly Cloudy 50 10 50 10 100 100 Calm 29.95 1014 10 16.0934 0 0
7:35 am 07:35 Sunny 50 10 50 10 100 100 Calm 29.96 1014 10 16.0934 0 0
7:55 am 07:55 Sunny 50 10 50 10 100 100 Calm 29.96 1014 10 16.0934 0 0
8:15 am 08:15 Sunny 50 10 50 10 100 100 Calm 29.96 1014 10 16.0934 0 0
8:35 am 08:35 Sunny 52 11 52 11 100 100 Calm 29.95 1014 10 16.0934 0 0
8:55 am 08:55 Partly Cloudy 54 12 52 11 94 94 Calm 29.95 1014 10 16.0934 0 0
9:15 am 09:15 Partly Cloudy 55 13 52 11 88 88 Calm 29.95 1014 10 16.0934 0 0
9:35 am 09:35 Sunny 57 14 54 12 88 88 Calm 29.96 1015 10 16.0934 0 0
9:55 am 09:55 Sunny 59 15 54 12 82 82 Calm 29.97 1015 10 16.0934 0 0
10:15 am 10:15 Sunny 63 17 54 12 73 73 Calm 29.97 1015 10 16.0934 0 0
10:35 am 10:35 Sunny 63 17 54 12 73 73 Calm 29.97 1015 10 16.0934 0 0
10:55 am 10:55 Partly Cloudy 64 18 52 11 64 64 NNW 7 11 29.96 1015 10 16.0934 0 0
11:15 am 11:15 Partly Cloudy 64 18 50 10 60 60 NNW 7 11 29.96 1015 10 16.0934 0 0
11:35 am 11:35 Partly Cloudy 64 18 52 11 64 64 NNW 6 9 29.96 1015 10 16.0934 0 0
11:55 am 11:55 Sunny 66 19 52 11 60 60 NNW 9 15 29.96 1015 10 16.0934 0 0
12:15 pm 12:15 Sunny 66 19 52 11 60 60 N 7 11 29.96 1015 10 16.0934 0 0
12:35 pm 12:35 Sunny 66 19 52 11 60 60 N 6 9 29.96 1015 10 16.0934 0 0
12:55 pm 12:55 Partly Cloudy 66 19 52 11 60 60 NNW 5 7 29.96 1015 10 16.0934 0 0
1:15 pm 13:15 Partly Cloudy 68 20 54 12 60 60 N 5 7 29.95 1014 10 16.0934 0 0
1:35 pm 13:35 Mostly Cloudy 68 20 52 11 56 56 NNW 6 9 29.95 1014 10 16.0934 0 0
1:55 pm 13:55 Cloudy 68 20 52 11 56 56 Calm 29.94 1014 10 16.0934 0 0
2:15 pm 14:15 Cloudy 68 20 52 11 56 56 NNE 3 6 29.94 1014 10 16.0934 0 0
2:35 pm 14:35 Cloudy 68 20 52 11 56 56 NNW 7 11 29.94 1014 10 16.0934 0 0
2:55 pm 14:55 Cloudy 68 20 52 11 56 56 N 6 9 29.93 1014 10 16.0934 0 0
3:15 pm 15:15 Cloudy 68 20 52 11 56 56 N 7 11 29.93 1014 10 16.0934 0 0
3:35 pm 15:35 Cloudy 66 19 52 11 60 60 N 6 9 29.93 1014 10 16.0934 0 0
3:55 pm 15:55 Cloudy 64 18 52 11 64 64 N 3 6 29.93 1014 10 16.0934 0 0
4:15 pm 16:15 Cloudy 64 18 54 12 68 68 N 6 9 29.94 1014 10 16.0934 0 0
4:35 pm 16:35 Cloudy 64 18 52 11 64 64 N 5 7 29.93 1014 10 16.0934 0 0
4:55 pm 16:55 Cloudy 64 18 54 12 68 68 N 5 7 29.94 1014 10 16.0934 0 0
5:15 pm 17:15 Cloudy 63 17 55 13 77 77 Calm 29.96 1014 10 16.0934 0 0
5:35 pm 17:35 Cloudy 63 17 54 12 73 73 Calm 29.95 1014 10 16.0934 0 0
5:55 pm 17:55 Cloudy 63 17 54 12 73 73 ENE 3 6 29.95 1014 10 16.0934 0 0
6:15 pm 18:15 Cloudy 63 17 54 12 73 73 ENE 3 6 29.95 1014 10 16.0934 0 0
6:35 pm 18:35 Cloudy 63 17 54 12 73 73 Calm 29.95 1014 10 16.0934 0 0
6:55 pm 18:55 Cloudy 61 16 55 13 83 83 NNE 3 6 29.95 1014 10 16.0934 0 0
7:15 pm 19:15 Cloudy 61 16 55 13 83 83 N 3 6 29.95 1014 10 16.0934 0 0
7:35 pm 19:35 Cloudy 61 16 59 15 94 94 Calm 29.97 1015 10 16.0934 0 0
7:55 pm 19:55 Cloudy 59 15 57 14 94 94 Calm 29.96 1015 10 16.0934 0 0
8:15 pm 20:15 Cloudy 59 15 57 14 94 94 Calm 29.96 1015 10 16.0934 0 0
8:35 pm 20:35 Cloudy 59 15 55 13 88 88 Calm 29.98 1015 10 16.0934 0 0
8:55 pm 20:55 Cloudy 59 15 55 13 88 88 Calm 29.98 1015 10 16.0934 0 0
9:15 pm 21:15 Cloudy 57 14 55 13 94 94 Calm 29.98 1015 10 16.0934 0 0
9:35 pm 21:35 Cloudy 57 14 55 13 94 94 Calm 29.98 1015 10 16.0934 0 0
9:55 pm 21:55 Cloudy 57 14 55 13 94 94 Calm 29.98 1015 10 16.0934 0 0
10:15 pm 22:15 Cloudy 57 14 55 13 94 94 Calm 30 1016 10 16.0934 0 0
10:35 pm 22:35 Cloudy 55 13 55 13 100 100 Calm 30 1016 10 16.0934 0 0
10:55 pm 22:55 Cloudy 55 13 55 13 100 100 Calm 29.98 1015 10 16.0934 0 0
11:15 pm 23:15 Cloudy 55 13 55 13 100 100 Calm 30.01 1016 10 16.0934 0 0
11:35 pm 23:35 Cloudy 55 13 55 13 100 100 Calm 30 1016 10 16.0934 0 0
11:55 pm 23:55 Cloudy 55 13 55 13 100 100 Calm 29.98 1015 10 16.0934 0 0

Powered by AerisWeather